Regional Weather Roundup
Issued by NWS

Home | Current Version | Previous Version | Text Only | Print | Product List | Glossary On
Versions: 1 2 3 4 5 6 7 8 9 10 11 12 13 14 15 16 17 18 19 20 21 22 23 24 25 26 27 28 29 30 31 32 33 34 35 36 37 38 39 40 41 42 43 44 45 46 47 48 49 50
000
ASUS45 KBOU 041010
RWRCO

WEATHER ROUNDUP FOR COLORADO
NATIONAL WEATHER SERVICE DENVER/BOULDER CO
400 AM MDT SAT JUL 04 2015

NOTE: "FAIR" INDICATES FEW OR NO CLOUDS BELOW 12000 FEET WITH NO
SIGNIFICANT WEATHER AND/OR OBSTRUCTIONS TO VISIBILITY.

COZ001>005-013-030-031-041100-
...NORTHWEST COLORADO...

CITY           SKY/WX    TMP DP  RH WIND       PRES   REMARKS
CRAIG          PTCLDY    54  45  71 CALM      30.11S
HAYDEN         MOCLDY    57  41  54 E5        30.14R
MEEKER         MOCLDY    60  47  61 CALM      30.15R
MOUNT WERNER   NOT AVBL
STEAMBOAT SPGS PTCLDY    51  42  69 CALM      30.16S
WALDEN         MOCLDY    50  39  66 SE6       30.25R
$$

COZ006>008-011-041100-
...WEST CENTRAL VALLEYS...

CITY           SKY/WX    TMP DP  RH WIND       PRES   REMARKS
GRAND JUNCTION MOCLDY    74  50  42 E15       30.03R
MONTROSE       PTCLDY    65  47  52 S8        30.14F
EAGLE          CLEAR     57  48  72 E3        30.20R
RIFLE          MOCLDY    62  54  74 SE3       30.11R
DELTA          PTCLDY    71  50  48 NE6       30.11R
NUCLA          PTCLDY    63  46  55 SE8       30.19R
$$

COZ017>023-064>068-041100-
...SOUTHWEST COLORADO...

CITY           SKY/WX    TMP DP  RH WIND       PRES   REMARKS
DURANGO        MOCLDY    54  47  77 N6        30.22S
CORTEZ         CLEAR     59  51  75 NE6       30.17R
PAGOSA SPRINGS MOCLDY    52  49  90 CALM      30.30S
TELLURIDE      MOCLDY    54  45  72 CALM      30.40R
WOLF CREEK PAS NOT AVBL
$$

COZ009-010-012-014-032>034-037-058>063-041100-
...CENTRAL COLORADO...

CITY           SKY/WX    TMP DP  RH WIND       PRES   REMARKS
ASPEN          PTCLDY    59  44  57 SE10      30.26S
BUENA VISTA    MOCLDY    53  49  84 SW5       30.30F
COPPER MTN     CLEAR     52  41  66 S21       30.58R
BERTHOUD PASS  FAIR      43  32  65 W22       30.59F
COTTONWOOD PAS NOT AVBL
GUNNISON       MOCLDY    55  46  71 NW8       30.33S
KREMMLING      CLEAR     54  41  62 SE3       30.24R
LEADVILLE      PTCLDY    45  44  97 NE5       30.42F
MONARCH PASS   MOCLDY    46  37  71 W20       30.68F
SALIDA         MOCLDY    58  51  75 CALM      30.34F
SUNLIGHT       CLOUDY    55  41  58 CALM      30.50S
WILKERSON PASS PTCLDY    46  43  87 SW9G17    30.53S
$$

COZ069>075-041100-
...SAN LUIS VALLEY/SANGRE DE CRISTO MOUNTAINS...

CITY           SKY/WX    TMP DP  RH WIND       PRES   REMARKS
ALAMOSA        PTCLDY    50  46  86 SW3       30.29S
LA VETA PASS   PTCLDY    48  41  76 MISG      30.44S
SAGUACHE       PTCLDY    54  46  76 NW13      30.32F
$$

COZ035-036-038>040-041100-
...NORTHERN COLORADO FRONT RANGE...

CITY           SKY/WX    TMP DP  RH WIND       PRES   REMARKS
DENVER INTL AP PTCLDY    68  49  50 S15       30.02F
DMNS CITY PARK   N/A     65  52  62 E7        30.03S
AURORA         PTCLDY    64  50  61 S13       30.05F
FRONT RANGE AP CLEAR     68  52  56 S14       30.04F
ERIE MUNI ARPT CLEAR     61  56  84 CALM      30.01S
BOULDER MUN AP CLEAR     63  55  77 CALM      30.02F
CENTENNIAL     PTCLDY    63  50  62 S9        30.07S
BROOMFIELD     CLEAR     63  54  72 CALM      30.05S
FORT COLLINS   PTCLDY    61  57  88 N3        30.03R
LONGMONT       PTCLDY    63  57  81 CALM      30.03S
$$

COZ041-046-047-076>085-087-088-041100-
...PIKES PEAK/PALMER DIVIDE AND SOUTHERN FOOTHILLS...

CITY           SKY/WX    TMP DP  RH WIND       PRES   REMARKS
COLO. SPRINGS  PTCLDY    58  52  80 N3        30.12F
A. F. ACADEMY  PTCLDY    55  51  88 N8        30.14F
ELLICOTT       PTCLDY   N/A N/A N/A SE9       30.12S
FALCON         PTCLDY    53  47  79 NW8       30.17F
FORT CARSON    PTCLDY    58  52  79 N10       30.09F
LIMON          CLEAR     54  54 100 CALM      30.07F FOG
MONUMENT HILL  NOT AVBL
TRINIDAD       CLEAR     61  54  77 SW12      30.12F
$$

COZ042>045-048>051-090-091-041100-
...NORTHEAST COLORADO...

CITY           SKY/WX    TMP DP  RH WIND       PRES   REMARKS
GREELEY ARPT   PTCLDY    63  59  88 NE3       30.00R
AKRON          PTCLDY    63  60  90 S10       30.02S
BURLINGTON     CLEAR     62  59  90 SE12      30.03F
WRAY           PTCLDY    66  60  79 E3        30.00S
STERLING       PTCLDY    64  61  88 S6          N/A
HOLYOKE        PTCLDY    63  59  88 SE5       30.01S
FORT MORGAN    PTCLDY    61  57  88 SE3       30.00S
$$

COZ086-089-092>099-041100-
...SOUTHEAST COLORADO...

CITY           SKY/WX    TMP DP  RH WIND       PRES   REMARKS
PUEBLO         PTCLDY    60  55  83 E8        30.04F
LA JUNTA       CLEAR     65  54  67 W9        30.01F
LAMAR          CLEAR     63  59  87 SE5       29.98F
SPRINGFIELD      N/A     63  59  87 SW10      30.05F
$$


USA.gov is the U.S. government's official web portal to all federal, state and local government web resources and services.